Skip Page Navigation
NASA JPL Caltech
NASA Logo - Jet Propulsion Laboratory + View the NASA Portal
+ Center for Near-Earth Object Studies
JPL Home Earth Solar System Stars & Galaxies Technology
JPL Solar System Dynamics
BODIES ORBITS EPHEMERIDES TOOLS PHYSICAL DATA DISCOVERY FAQ SITE MAP
IMPORTANT: The SSD Announcement email list is now available. Major changes are coming in the near future, including possible hostname and/or URL changes. To be notified of such changes, subscribe to this email list.

Please visit this page for more details.


JPL Small-Body Database Browser
Search: [ help ]  
379694 (2011 FQ72)
Classification: Main-belt Asteroid          SPK-ID: 2379694
Ephemeris | Orbit Diagram | Orbital Elements | Mission Design | Physical Parameters | Discovery Circumstances ]

[ show orbit diagram ]
Orbital Elements at Epoch 2458600.5 (2019-Apr-27.0) TDB
Reference: JPL 13 (heliocentric ecliptic J2000)
 Element Value Uncertainty (1-sigma)   Units 
e .1451822330060067 8.5707e-08  
a 2.387661995370135 2.1401e-08 au
q 2.041015895218721 2.0693e-07 au
i 1.902439080697102 1.032e-05 deg
node 31.72203093518239 0.00022908 deg
peri 56.98386582047622 0.00023452 deg
M 137.2944107910824 4.2274e-05 deg
tp 2458086.565167018683
(2017-Nov-29.06516702)
0.0001573 TDB
period 1347.589743873909
3.69
1.8118e-05
4.96e-08
d
yr
n .2671436181794541 3.5917e-09 deg/d
Q 2.734308095521548 2.4508e-08 au
  Orbit Determination Parameters
   # obs. used (total)      119  
   data-arc span      8039 days (22.01 yr)  
   first obs. used      1996-01-19  
   last obs. used      2018-01-22  
   planetary ephem.      DE431  
   SB-pert. ephem.      SB431-N16  
   condition code      0  
   norm. resid. RMS      .58309  
   source      ORB  
   producer      Otto Matic  
   solution date      2018-Feb-06 09:32:21  

Additional Information
 Earth MOID = 1.05819 au 
 Jupiter MOID = 2.45203 au 
 T_jup = 3.519 
[ show covariance matrix ]

Ephemeris | Orbit Diagram | Orbital Elements | Mission Design | Physical Parameters | Discovery Circumstances ]

Physical Parameter Table
Parameter Symbol Value Units Sigma Reference Notes
absolute magnitude H 18.1   n/a MPO434349  

379694 (2011 FQ72)          Discovered 2006-Dec-24 by Spacewatch at Kitt Peak
Reference: Last Updated: 2013-11-20
Ephemeris | Orbit Diagram | Orbital Elements | Mission Design | Physical Parameters | Discovery Circumstances ]
ABOUT SSD CREDITS/AWARDS PRIVACY/COPYRIGHT GLOSSARY LINKS
FirstGov 2019-Dec-16 11:26 UT
(server date/time)  
NASA Home Page
Site Manager:   Ryan S. Park
Webmaster  Alan B. Chamberlin